Overview Statistics Trail Chart Weather Telemetry Raw packets
 

This is the latest recevied weather packets stored in our database for station/object VE6HFD-WX. If no packets are shown the sender has not sent any weather packets the latest 10 day(s).

<< 21 22 23 24 25 26 27 >>
Time Temp. Humidity Pressure Rain* Wind** Luminosity Snow
1788464291 20° C 59% 998.4 hPa 0 mm - - -
1788463991 20° C 59% 998.4 hPa 0 mm - - -
1788463691 20° C 59% 998.4 hPa 0 mm - - -
1788463391 20° C 59% 998.3 hPa 0 mm - - -
1788463091 20° C 60% 998.3 hPa 0 mm - - -
1788462791 20° C 60% 998.2 hPa 0 mm - - -
1788462491 19.44° C 60% 998.2 hPa 0 mm - - -
1788462191 19.44° C 60% 998.2 hPa 0 mm - - -
1788461861 18.89° C 59% 998.3 hPa 0 mm - - -
1788461531 19.44° C 61% 998.3 hPa 0 mm - - -
1788461231 18.89° C 60% 998.3 hPa 0 mm - - -
1788460931 18.89° C 62% 998.4 hPa 0 mm - - -
1788460601 18.33° C 62% 998.4 hPa 0 mm - - -
1788460301 18.33° C 63% 998.4 hPa 0 mm - - -
1788459971 18.33° C 64% 998.5 hPa 0 mm - - -
1788459671 18.33° C 64% 998.6 hPa 0 mm - - -
1788459341 17.78° C 67% 998.5 hPa 0 mm - - -
1788459011 17.22° C 67% 998.3 hPa 0 mm - - -
1788458711 17.22° C 66% 998.4 hPa 0 mm - - -
1788458381 17.78° C 67% 998.2 hPa 0 mm - - -
1788458081 17.22° C 67% 998 hPa 0 mm - - -
1788457751 17.22° C 68% 997.9 hPa 0 mm - - -
1788457421 17.22° C 69% 998 hPa 0 mm - - -
1788457091 16.67° C 69% 997.9 hPa 0 mm - - -
1788456791 16.67° C 71% 998.1 hPa 0 mm - - -

* Rain latest hour (hover to see other rain measurements)
** Current wind speed in m/s (hover to see current wind gust speed)